This is the latest recevied weather packets stored in our database for station/object KC9DRE. If no packets are shown the sender has not sent any weather packets the latest 10 day(s).
| Time | Temp. | Humidity | Pressure | Rain* | Wind** | Luminosity | Snow |
|---|---|---|---|---|---|---|---|
| 1788046408 | 25.56° C | 78% | 1019.4 hPa | 0 mm | - | 44 W/m² | - |
| 1788046105 | 26.11° C | 77% | 1019.4 hPa | 0 mm | - | 53 W/m² | - |
| 1788045801 | 26.11° C | 76% | 1019.3 hPa | 0 mm | - | 58 W/m² | - |
| 1788045496 | 26.11° C | 76% | 1019.2 hPa | 0 mm | - | 61 W/m² | - |
| 1788045192 | 26.11° C | 75% | 1019.3 hPa | 0 mm | - | 70 W/m² | - |
| 1788044887 | 26.11° C | 74% | 1019.3 hPa | 0 mm | - | 82 W/m² | - |
| 1788044581 | 26.67° C | 72% | 1019.4 hPa | 0 mm | - | 92 W/m² | - |
| 1788044279 | 26.67° C | 72% | 1019.3 hPa | 0 mm | - | 98 W/m² | - |
| 1788043976 | 26.67° C | 70% | 1019.4 hPa | 0 mm | - | 100 W/m² | - |
| 1788043671 | 26.67° C | 69% | 1019.5 hPa | 0 mm | - | 103 W/m² | - |
| 1788043366 | 27.22° C | 67% | 1019.6 hPa | 0 mm | - | 114 W/m² | - |
| 1788043065 | 27.22° C | 67% | 1019.5 hPa | 0 mm | - | 110 W/m² | - |
| 1788042761 | 27.78° C | 65% | 1019.5 hPa | 0 mm | - | 88 W/m² | - |
| 1788042460 | 28.89° C | 62% | 1019.7 hPa | 0 mm | - | 76 W/m² | - |
| 1788042155 | 30° C | 59% | 1019.6 hPa | 0 mm | - | 72 W/m² | - |
| 1788041851 | 30.56° C | 58% | 1019.5 hPa | 0 mm | - | 74 W/m² | - |
| 1788041551 | 31.67° C | 57% | 1019.6 hPa | 0 mm | - | 91 W/m² | - |
| 1788041246 | 32.22° C | 51% | 1019.6 hPa | 0 mm | - | 137 W/m² | - |
| 1788040945 | 32.78° C | 48% | 1019.6 hPa | 0 mm | - | 230 W/m² | - |
| 1788040644 | 32.78° C | 51% | 1019.6 hPa | 0 mm | - | 298 W/m² | - |
| 1788040339 | 32.78° C | 47% | 1019.7 hPa | 0 mm | - | 293 W/m² | - |
| 1788040039 | 32.78° C | 46% | 1019.6 hPa | 0 mm | - | 320 W/m² | - |
| 1788039735 | 32.22° C | 53% | 1019.6 hPa | 0 mm | - | 345 W/m² | - |
| 1788039434 | 31.67° C | 47% | 1019.7 hPa | 0 mm | - | 328 W/m² | - |
| 1788039130 | 31.67° C | 53% | 1019.6 hPa | 0 mm | - | 336 W/m² | - |
* Rain latest hour (hover to see other rain measurements)
** Current wind speed in m/s (hover to see current wind gust speed)